カタログに戻る

NOAA 16 DEB

運用中PO
NORAD 41150·DEBRIS·🇺🇸 United States

打ち上げ Sep 21, 2000 から Vandenberg Space Force Base

Loading…

次のパス (今後24時間)

TLE

最新Source: Space-Track

元期: Sep 14, 2026, 07:42 UTC

1 41150U 00055CH  26257.32140674  .00017639  00000-0  17720-2 0  9995
2 41150  98.8011  99.6239 0023234  21.2981 338.9196 14.91139950565642

AllMySatでNOAA 16 DEBをリアルタイム追跡

Download on the App Store